TimeCST,TemperatureF,Dew PointF,Humidity,Sea Level PressureIn,VisibilityMPH,Wind Direction,Wind SpeedMPH,Gust SpeedMPH,PrecipitationIn,Events,Conditions,WindDirDegrees,DateUTC
12:55 AM,12.9,7.0,77,30.40,10.0,NW,10.4,-,N/A,,Clear,310,2013-01-21 06:55:00
1:55 AM,10.9,5.0,77,30.40,10.0,NW,6.9,-,N/A,,Clear,320,2013-01-21 07:55:00
2:55 AM,12.0,3.9,70,30.40,10.0,WNW,6.9,-,N/A,,Mostly Cloudy,290,2013-01-21 08:55:00
3:55 AM,12.9,3.9,67,30.40,10.0,WNW,9.2,-,N/A,,Scattered Clouds,300,2013-01-21 09:55:00
4:55 AM,12.9,-0.9,54,30.38,10.0,NW,19.6,32.2,N/A,,Scattered Clouds,310,2013-01-21 10:55:00
5:55 AM,12.9,-0.9,54,30.39,10.0,WNW,11.5,-,N/A,,Clear,300,2013-01-21 11:55:00
6:55 AM,10.9,-2.0,56,30.40,10.0,NW,15.0,21.9,N/A,,Clear,310,2013-01-21 12:55:00
7:55 AM,8.1,-6.0,53,30.43,10.0,NW,10.4,19.6,N/A,,Clear,310,2013-01-21 13:55:00
8:55 AM,7.0,-8.0,51,30.44,10.0,NW,17.3,24.2,N/A,,Clear,320,2013-01-21 14:55:00
9:55 AM,8.1,-7.1,50,30.47,10.0,NW,15.0,26.5,N/A,,Clear,310,2013-01-21 15:55:00
10:55 AM,10.9,-6.0,47,30.46,10.0,NW,11.5,20.7,N/A,,Clear,320,2013-01-21 16:55:00
11:55 AM,10.9,-8.0,42,30.45,10.0,NW,15.0,-,N/A,,Clear,320,2013-01-21 17:55:00
12:55 PM,12.0,-9.0,39,30.44,10.0,NW,13.8,18.4,N/A,,Clear,320,2013-01-21 18:55:00
1:55 PM,12.0,-9.9,37,30.44,10.0,WNW,10.4,-,N/A,,Clear,300,2013-01-21 19:55:00
2:55 PM,10.9,-9.0,40,30.44,10.0,NW,8.1,-,N/A,,Mostly Cloudy,310,2013-01-21 20:55:00
3:55 PM,10.9,-8.0,42,30.43,10.0,West,8.1,-,N/A,,Scattered Clouds,270,2013-01-21 21:55:00
4:55 PM,10.4,-7.6,44,30.36,10.0,West,3.5,-,N/A,,Clear,270,2013-01-21 22:55:00
5:55 PM,10.0,-6.0,48,30.43,10.0,WSW,3.5,-,N/A,,Partly Cloudy,250,2013-01-21 23:55:00
6:55 PM,10.0,-5.1,51,30.43,10.0,West,4.6,-,N/A,,Mostly Cloudy,270,2013-01-22 00:55:00
7:55 PM,10.0,-5.1,51,30.44,10.0,West,5.8,-,N/A,,Clear,280,2013-01-22 01:55:00
8:55 PM,10.0,-4.0,53,30.44,10.0,West,3.5,-,N/A,,Overcast,260,2013-01-22 02:55:00
9:55 PM,10.9,-2.9,54,30.44,10.0,West,4.6,-,N/A,,Overcast,270,2013-01-22 03:55:00
10:55 PM,9.0,-2.9,59,30.45,10.0,West,3.5,-,N/A,,Partly Cloudy,270,2013-01-22 04:55:00
11:55 PM,9.0,-2.0,61,30.44,10.0,NW,3.5,-,N/A,,Clear,310,2013-01-22 05:55:00